Historyczne dane pomiarowe

Dodano dane terminowe – wersja testowa.

Dane z okresu 1951-2018

Wersja bazy: 1.29 [2019-01-10, lista zmian], aktualizacja planowana na 2019-02-07

Dane meteo z obszaru Polski uzyskane na podstawie danych udostępnionych przez Instytut Meteorologii i Gospodarki Wodnej – Państwowy Instytut Badawczy.

 

Wybierz Datę:    

       

TemperaturaWilgotnośćWiatrCiśnienieOpadyŚniegCzas trwania zjawisk
 Stacja t tx tn tng RH VA  wxwx mslp ppp RRR   cm mm wxwxwxwxwxwxwx
2018-12-31 1.2 2.6 0.5 0.2 90.6 6.0- 4.1--1028.0 990.9 0.0 0.0 0.0x- 0.0-------
2018-12-30 2.7 3.8 1.7 1.5 95.0 7.1- 3.0--1019.9 983.3 6.8 5.8 1.0x- 0.0-------
2018-12-29 3.3 3.9 2.3 2.2 95.1 7.3- 2.4--1025.4 988.6 1.7 0.7 1.0x- 0.0-------
2018-12-28 3.7 4.4 3.3 3.3 95.8 7.6- 2.9--1021.9 985.3 0.8 0.5 0.3x- 0.0-------
2018-12-27 4.1 5.3 2.6 2.2 94.4 7.7- 2.1--1023.1 986.5 0.7 0.7 0.0x- 0.0-------
2018-12-26 2.6 3.2 1.8 1.2 91.9 6.8- 2.9--1024.3 987.5 0.5 0.1 0.4x- 0.0-------
2018-12-25 0.1 1.9 -2.1 -2.2 92.4 5.7- 3.0--1025.2 988.0 2.4 1.6 0.8x- 0.0-------
2018-12-24 0.4 4.2 -1.3 -1.5 89.3 5.7- 4.8--1017.0 980.2 0.2 0.2 0.0x- 0.0-------
2018-12-23 2.6 3.9 1.2 0.7 93.1 6.9- 1.8--1016.6 980.1 2.6 0.4 2.2x- 0.0-------
2018-12-22 4.9 6.9 2.4 1.2 86.9 7.5- 3.8--1006.8 970.9 0.3 0.3 0.0x- 0.0-------
2018-12-21 1.4 3.0 -2.6 -2.5 85.5 5.8- 3.5--1015.3 978.7 5.3 0.0 5.3x- 0.6-------
2018-12-20 -2.9 -0.8 -5.7 -6.2 86.3 4.3- 2.3--1020.6 983.1 0.3 0.0 0.3x- 0.0-------
2018-12-19 -3.7 0.3 -5.3 -5.8 89.9 4.2- 2.4--1026.7 988.9 0.0 0.0 0.0x- 0.6-------
2018-12-18 -0.1 1.7 -1.3 -2.3 89.8 5.5- 1.1--1029.1 991.8 0.0 0.0 0.0x- 0.0-------
2018-12-17 -3.0 -1.2 -6.2 -8.4 88.5 4.4- 1.8--1023.2 985.7 0.0 0.0 0.0x- 0.0-------
2018-12-16 -2.8 -1.8 -3.3 -3.4 89.1 4.4- 1.9--1020.2 982.8 0.2 0.2 0.0x- 0.0-------
2018-12-15 -1.6 -1.2 -2.1 -2.2 87.1 4.7- 2.6--1026.8 989.3 0.4 0.0 0.4x- 0.0-------
2018-12-14 -1.8 -0.3 -2.2 -2.4 91.8 5.0- 2.0--1026.3 988.8 0.0 0.0 0.0x- 0.0-------
2018-12-13 -0.7 -0.2 -2.4 -4.8 97.6 5.7- 1.5--1023.6 986.4 0.1 0.0 0.1x- 0.0-------
2018-12-12 -0.6 0.2 -1.8 -3.3 96.9 5.7- 2.4--1020.4 983.3 0.2 0.2 0.0x- 0.0-------
2018-12-11 0.2 1.0 -0.1 -0.1 96.1 6.0- 2.0--1011.3 974.7 5.8 4.3 1.5x- 0.0-------
2018-12-10 2.3 5.5 0.6 0.0 89.5 6.5- 2.9--1006.7 970.5 3.4 1.3 2.1x- 0.3-------
2018-12-09 4.8--- 89.4 7.7- 3.4-- 998.1 962.6 7.2 3.5 3.7x- 0.2-------
2018-12-08 5.3 7.7 3.9 2.4 78.9 7.0- 3.3--1005.5 969.7 2.6 0.0 2.6x- 2.8-------
2018-12-07 4.0 6.3 1.0 0.3 93.5 7.7- 3.1--1012.1 975.9 2.1 0.3 1.8x- 0.0-------
2018-12-06 -0.3 2.4 -3.3 -4.9 82.1 4.9- 2.4--1024.5 987.3 0.1 0.0 0.1x- 1.6-------
2018-12-05 -0.1 2.8 -1.9 -4.1 91.0 5.5- 1.8--1028.3 991.0 0.0 0.0 0.0x- 3.7-------
2018-12-04 5.3 7.7 2.4 1.0 93.0 8.4- 2.9--1011.6 975.6 2.4 2.4 0.0x- 0.0-------
2018-12-03 4.2 6.4 0.9 0.4 92.8 7.7- 3.6--1006.5 970.5 1.1 0.1 1.0x- 0.0-------
2018-12-02 0.3 2.4 -2.5 -2.6 86.6 5.4- 3.6--1013.5 976.7 1.6 0.0 1.6x- 1.1-------
2018-12-01 -5.0 -1.4 -9.9-10.8 81.1 3.6- 2.3--1020.1 982.4 0.0 0.0 0.0x- 4.8-------
2018-11-30 -4.4 0.4 -6.8 -8.6 70.6 3.1- 2.3--1026.4 988.5 0.0 0.0 0.0x- 6.8-------
2018-11-29 -5.0 -1.7 -7.6 -9.2 75.6 3.2- 3.0--1033.8 995.6 0.0 0.0 0.0x- 7.9-------
2018-11-28 -2.6 -1.1 -3.7 -7.5 86.5 4.4- 1.9--1031.0 993.2 0.0 0.0 0.0x- 0.7-------
2018-11-27 -2.1 0.3 -3.1 -3.5 79.9 4.2- 2.9--1020.1 982.8 0.0 0.0 0.0x- 3.8-------
2018-11-26 1.5 5.0 -1.0 -0.7 91.5 6.3- 3.5--1011.8 975.3 0.0 0.0 0.0x- 0.0-------
2018-11-25 5.3 7.4 4.2 2.5 89.0 7.9- 1.1--1013.9 977.8 0.0 0.0 0.0x- 0.1-------
2018-11-24 3.4 6.0 0.9 0.7 89.6 7.0- 1.4--1016.9 980.5 0.0 0.0 0.0x- 0.0-------
2018-11-23 1.3 5.5 -0.9 -0.8 87.3 5.9- 2.0--1026.0 988.9 0.0 0.0 0.0x- 3.9-------
2018-11-22 -0.8 -0.2 -1.2 -1.2 88.1 5.1- 2.6--1026.2 988.9 0.0 0.0 0.0x- 0.0-------
2018-11-21 -0.7 -0.3 -1.2 -1.4 88.5 5.1- 3.5--1022.7 985.5 0.5 0.5 0.0x- 0.0-------
2018-11-20 -0.7 -0.2 -0.9 -0.9 84.0 4.9- 4.4--1021.5 984.4 0.0 0.0 0.0x- 0.0-------
2018-11-19 -0.7 0.0 -2.3 -2.3 90.6 5.2- 2.8--1022.9 985.7 0.0 0.0 0.0x- 0.0-------
2018-11-18 -2.0 2.1 -5.4 -6.5 74.9 3.9- 1.8--1029.6 992.0 1.3 0.0 1.3x- 4.2-------
2018-11-17 -0.2 3.5 -3.1 -3.3 72.1 4.3- 2.5--1038.91001.2 0.0 0.0 0.0x- 8.3-------
2018-11-16 3.8 6.5 3.0 2.7 78.5 6.3- 2.8--1037.31000.2 0.0 0.0 0.0x- 0.9-------
2018-11-15 6.7 8.2 6.2 4.7 84.1 8.3- 1.9--1032.4 995.9 0.0 0.0 0.0x- 0.0-------
2018-11-14 7.5 10.9 6.5 5.2 89.0 9.2- 2.8--1029.4 993.0 0.2 0.2 0.0x- 0.1-------
2018-11-13 11.1 16.6 8.0 6.7 81.4 10.6- 3.0--1023.9 988.2 3.2 0.9 2.3x- 5.3-------
2018-11-12 10.0 16.5 5.1 3.8 79.4 9.6- 2.5--1023.2 987.4 0.0 0.0 0.0x- 5.1-------
2018-11-11 9.7 15.1 4.4 2.3 78.5 9.3- 2.5--1017.0 981.4 0.0 0.0 0.0x- 6.0-------
2018-11-10 8.6--- 85.8 9.4- 1.8--1016.1 980.3 0.0 0.0 0.0x- 7.5-------
2018-11-09 7.6 14.4 3.3 2.5 92.4 9.7- 1.4--1020.2 984.2 0.0 0.0 0.0x- 5.4-------
2018-11-08 9.5 14.9 5.5 2.0 82.3 9.8- 1.3--1021.2 985.4 0.0 0.0 0.0x- 5.9-------
2018-11-07 10.9 18.9 4.7 3.4 69.6 8.8- 2.1--1017.7 982.1 0.0 0.0 0.0x- 8.3-------
2018-11-06 12.0 20.1 6.5 4.2 66.4 8.9- 2.3--1018.6 983.2 0.0 0.0 0.0x- 8.9-------
2018-11-05 10.7 14.3 9.3 8.3 92.3 11.8- 2.1--1020.1 984.5 0.1 0.1 0.0x- 5.2-------
2018-11-04 9.7 10.7 8.4 8.5 97.1 11.7- 2.5--1024.2 988.3 0.0 0.0 0.0x- 0.0-------
2018-11-03 9.2 13.3 8.5 8.5 94.6 10.9- 2.6--1027.7 991.6 2.8 2.8 0.0x- 0.0-------
2018-11-02 14.4 18.5 11.8 6.1 66.1 10.8- 1.6--1022.2 986.9 6.5 0.0 6.5x- 7.1-------
44.3 ms

 

Źródłem pochodzenia danych jest Instytut Meteorologii i Gospodarki Wodnej – Państwowy Instytut Badawczy. Dane Instytutu Meteorologii i Gospodarki Wodnej – Państwowego Instytutu Badawczego zostały przetworzone.

Dane źródłowe można odnaleźć na stronie https://dane.imgw.pl